GFSSE_2pvu_pres_099.txt.gz
Presure
108 106 120 92 109 110 110 105 101 113 99 80 111 105 128 101 109 113 87 123 122 97 122 110 110 87 106 117 86 121 117 118 120 119 113 113 121 108 124 115 121 136 120
115 98 106 105 105 114 121 120 74 78 99 77 130 138 131 102 120 128 132 131 130 124 125 112 114 127 108 100 106 104 120 107 101 130 110 126 125 97 130 102 116 111 102
103 170 150 249 290 167 131 252 68 117 174 110 169 256 144 143 289 142 137 124 111 136 73 121 87 133 131 134 125 130 138 127 125 137 127 145 112 118 130 117 96 129 124
147 338 315 351 131 371 209 287 301 171 241 275 265 285 258 266 274 277 270 269 172 115 140 123 131 135 134 108 140 134 142 124 122 127 107 134 130 125 119 103 137 126 125
157 282 330 336 263 245 240 150 235 242 381 261 262 259 265 256 168 152 270 251 246 74 228 236 238 220 220 110 78 135 200 182 189 96 116 112 170 140 169 101 218 197 151
306 155 130 261 244 232 240 225 230 219 246 346 278 252 251 245 255 238 256 171 254 232 166 77 99 236 225 215 207 179 192 222 220 235 232 217 178 172 112 100 170 253 120
294 304 255 260 243 247 205 197 206 204 208 250 335 241 243 220 254 245 222 214 241 223 219 218 226 146 206 117 203 209 216 195 175 199 205 199 228 196 210 164 157 185 169
280 258 260 230 228 225 221 175 201 181 191 215 368 265 237 243 227 229 234 231 167 154 205 218 211 210 158 170 212 223 224 221 144 209 209 146 144 210 205 194 153 223 195
277 254 252 245 249 243 299 220 169 165 177 207 231 232 223 179 239 224 231 234 205 211 211 210 227 210 201 148 207 104 213 216 222 207 201 191 205 209 191 195 173 213 197
265 250 239 236 233 255 245 168 181 195 181 203 220 345 212 241 227 245 236 218 219 206 209 205 207 221 240 220 212 95 225 113 214 220 217 168 172 207 197 224 187 193 185
251 256 223 238 226 224 211 200 175 165 182 167 176 195 179 225 241 229 238 230 202 194 197 201 232 224 221 192 216 127 192 162 117 113 129 193 181 186 218 196 202 165 171
239 253 216 233 239 224 202 236 182 179 171 177 173 210 208 207 244 224 204 208 207 193 206 182 199 199 208 208 194 190 179 175 179 145 160 174 131 181 179 161 183 179 126
236 250 221 222 218 207 207 191 186 187 170 169 193 194 183 203 204 200 200 213 204 196 204 202 196 199 190 187 191 180 188 161 169 193 204 166 215 153 161 166 167 99 136
238 236 215 211 216 218 207 184 193 191 172 169 185 171 182 211 181 194 199 203 212 212 222 200 196 170 195 179 186 196 181 183 183 172 210 172 147 153 203 170 179 160 159
209 235 200 212 209 202 186 200 191 174 190 170 170 176 237 196 203 198 95 187 202 179 188 181 186 168 168 177 155 173 179 159 152 150 154 167 182 160 168 170 187 177 176
226 236 198 200 208 199 200 194 197 182 200 191 175 186 208 206 190 200 188 199 177 161 191 189 168 158 164 168 192 165 151 154 152 136 157 156 155 185 180 155 154 178 164
227 222 189 200 194 207 195 197 181 196 184 198 189 173 203 194 198 190 195 190 189 195 174 182 171 182 176 181 155 149 172 112 153 168 157 181 161 165 151 196 171 184 187
220 198 226 234 185 194 189 186 193 182 184 182 177 188 175 199 194 174 200 186 178 180 163 161 157 162 172 156 152 173 169 171 146 141 202 170 146 176 160 189 188 169 171
216 215 219 232 233 228 190 203 218 202 186 187 200 220 183 199 204 182 166 198 186 179 157 119 150 154 148 174 130 133 150 159 130 145 183 184 190 187 171 165 163 157 151
215 211 209 220 171 226 226 216 216 205 209 204 212 172 163 186 212 158 142 189 156 176 161 158 169 120 188 138 162 153 194 180 148 194 138 128 182 134 151 147 157 190 170
224 209 196 194 229 209 208 212 216 208 185 181 214 164 164 191 180 142 154 179 157 178 162 157 120 198 150 161 142 190 137 121 176 127 176 168 132 174 143 174 185 158 161
295 213 181 181 222 195 203 201 173 208 196 197 214 172 172 158 146 182 162 169 132 166 139 130 137 111 154 171 126 162 152 154 150 182 163 183 155 160 160 176 183 186 181
282 214 207 198 198 200 187 175 214 188 190 177 176 166 165 181 180 171 163 155 166 151 167 144 156 129 155 167 176 175 165 163 172 155 167 156 154 168 176 174 138 151 172
267 292 202 189 204 207 192 190 191 194 184 177 178 179 175 176 161 140 171 175 179 123 148 170 167 171 196 157 148 179 166 157 174 161 180 170 162 173 180 178 166 192 219
249 280 202 184 193 213 187 183 181 183 179 178 179 179 180 182 182 177 156 150 161 135 171 161 144 146 173 187 151 163 160 173 138 172 170 174 170 180 178 175 212 210 223
234 234 249 193 187 189 182 188 195 172 180 170 164 162 163 169 157 182 181 183 180 162 177 167 164 174 159 171 154 144 176 162 176 171 176 174 170 168 177 201 216 209 212

GFSSE_2pvu_pres_102.txt.gz
Presure
85 79 95 114 113 107 88 102 106 110 105 112 103 91 112 120 115 120 107 110 107 115 125 120 117 118 123 119 98 102 113 98 105 95 124 129 102 105 104 119 125 112 126
95 108 103 129 112 113 104 111 95 86 90 95 98 70 77 136 106 128 131 130 137 138 134 104 108 130 128 129 100 126 100 110 93 127 95 131 127 118 120 120 104 116 131
136 115 118 117 100 132 78 142 124 151 182 75 139 151 158 162 166 167 143 131 133 134 137 140 139 135 132 93 127 95 136 125 140 114 114 117 127 147 140 124 139 131 141
76 104 124 119 250 319 279 148 270 261 304 305 198 198 270 172 261 254 271 275 256 194 186 152 143 133 122 143 95 140 121 136 139 127 132 139 143 139 134 125 136 141 143
106 243 281 269 223 311 108 146 257 138 170 242 265 284 268 213 173 256 269 254 236 281 141 250 225 222 230 188 152 138 150 135 144 143 147 147 199 157 175 91 94 164 91
256 266 267 300 328 281 270 248 224 123 220 210 197 220 291 230 221 253 241 255 273 272 248 256 265 246 92 90 216 212 212 154 153 159 200 224 229 82 212 224 189 198 217
136 174 134 178 246 260 252 230 231 226 210 213 205 216 237 231 203 219 259 244 252 235 145 253 224 221 234 216 231 221 238 235 233 210 214 207 126 213 207 184 155 217 216
285 212 286 192 250 243 238 233 209 206 160 193 205 213 200 277 215 218 217 255 249 230 227 232 217 166 170 210 140 216 220 215 206 187 138 215 210 206 204 192 219 184 190
258 243 279 238 246 245 235 227 215 224 185 169 186 178 186 329 221 204 216 210 238 191 226 218 217 223 221 222 187 215 214 212 205 181 199 192 226 220 192 200 195 196 200
252 244 251 230 249 239 243 211 211 220 231 182 176 179 162 194 207 211 224 241 196 223 206 219 214 205 216 210 206 190 206 198 204 207 225 199 205 197 170 198 193 170 148
255 243 278 235 261 224 222 221 234 174 185 174 124 173 190 182 171 176 253 225 225 212 216 210 201 207 201 196 208 194 203 204 202 206 186 120 204 186 173 149 161 176 156
261 237 286 240 250 216 242 225 194 196 190 170 173 166 182 171 177 209 223 218 230 220 194 202 198 202 200 192 182 227 200 201 191 191 191 194 139 193 198 166 121 173 186
253 240 259 261 210 222 200 197 194 192 197 169 160 168 169 168 180 186 223 166 204 201 192 197 196 204 193 193 230 202 181 195 183 189 195 177 175 132 158 168 202 161 163
254 240 253 244 249 193 241 203 168 189 201 159 185 172 179 178 185 199 178 255 238 198 193 192 184 196 177 211 198 180 182 182 180 191 188 171 167 173 185 173 167 168 154
250 226 248 236 217 220 189 180 182 178 173 169 182 166 183 191 171 174 183 223 196 211 207 204 197 185 191 194 180 191 122 167 172 176 170 193 183 144 125 169 144 177 169
253 227 249 231 228 204 187 190 177 197 183 167 174 169 199 183 161 169 182 210 184 187 204 195 214 183 192 191 161 164 182 170 177 189 167 161 151 133 152 154 191 164 141
254 218 223 224 222 210 195 178 209 186 189 180 187 164 181 183 174 176 177 180 197 203 199 200 193 184 181 178 167 167 176 155 157 183 164 160 148 137 159 156 133 164 194
230 225 225 242 203 200 215 192 206 212 179 195 191 176 190 182 185 165 176 183 206 189 202 192 173 185 173 193 177 158 163 151 144 166 149 141 146 163 151 185 147 151 163
239 224 214 238 208 204 194 199 206 183 177 196 172 188 167 179 195 178 178 189 159 193 192 187 179 185 159 169 170 184 158 165 160 153 167 154 174 155 140 127 145 190 132
226 237 214 222 228 189 195 201 208 179 186 191 180 180 170 181 182 170 196 198 185 152 193 176 162 171 136 166 151 153 171 174 161 141 147 142 149 146 175 138 168 178 166
217 260 219 214 220 247 193 181 199 207 179 177 190 171 176 185 193 200 203 204 183 167 198 172 147 160 150 155 168 175 189 159 150 124 128 111 168 133 157 124 185 166 143
212 242 214 212 211 222 241 194 191 179 193 187 185 175 191 183 167 207 172 157 184 194 148 172 164 168 159 165 150 145 135 163 132 138 139 173 192 166 167 137 122 181 170
223 201 283 213 213 209 215 226 215 209 211 193 188 195 195 195 168 201 168 163 160 151 157 164 163 155 143 164 168 146 176 163 161 154 152 149 140 161 182 171 164 180 170
235 202 257 210 209 198 181 206 215 197 211 193 210 215 200 177 172 177 172 161 175 172 138 149 157 164 165 187 158 152 163 173 146 148 148 144 180 165 174 163 174 158 194
235 207 217 306 209 206 202 191 204 199 199 211 191 200 173 198 163 164 155 167 172 163 161 143 155 146 157 178 137 171 172 177 169 175 178 185 147 172 152 175 158 159 185
243 206 247 287 202 205 192 192 206 195 185 196 199 184 181 173 175 168 171 180 183 164 171 185 186 178 187 180 169 170 165 157 170 163 160 152 168 172 164 175 174 173 202

GFSSE_2pvu_pres_105.txt.gz
Presure
108 116 76 75 115 104 112 115 104 105 112 109 105 111 107 117 110 107 104 122 87 120 123 124 120 113 117 129 84 131 108 123 114 114 128 130 104 118 97 95 135 100 115
122 139 80 108 112 97 103 103 105 76 93 104 83 74 110 112 113 126 128 127 131 132 119 131 135 139 133 103 116 132 88 132 89 100 113 128 136 135 129 135 143 133 123
139 106 103 102 104 122 106 121 116 85 113 110 120 137 79 134 157 148 78 145 138 142 141 130 148 134 131 124 140 140 135 83 132 139 127 84 99 129 131 133 129 139 121
129 114 125 90 125 183 175 142 154 181 113 203 239 207 312 232 160 269 191 265 260 278 259 207 165 156 157 155 128 97 120 143 141 138 139 142 146 150 142 144 138 142 137
125 189 266 76 278 276 277 317 271 231 263 263 267 234 251 190 133 142 262 281 264 253 169 254 263 269 242 165 171 168 161 122 145 150 86 151 155 128 145 193 140 144 145
257 233 264 262 293 279 270 327 196 251 245 237 225 212 225 225 258 236 127 220 208 267 254 255 138 240 307 281 234 231 228 231 226 154 206 223 203 204 157 253 211 214 204
252 233 254 269 297 268 217 173 255 128 236 219 208 223 209 179 214 232 227 227 229 254 275 244 229 252 247 258 260 249 250 212 235 214 219 228 213 228 101 212 208 205 213
226 173 182 291 250 289 253 252 215 242 221 207 203 201 206 206 212 228 232 217 224 237 252 247 229 244 237 203 176 238 159 244 219 216 225 229 225 182 204 157 187 177 185
214 237 239 243 285 251 246 234 222 226 211 205 197 204 199 205 203 191 241 235 213 157 209 244 241 221 160 228 215 107 216 206 154 220 200 217 147 203 205 192 198 195 162
243 238 222 254 259 240 249 220 241 229 198 218 208 203 186 203 193 203 178 189 201 229 223 233 208 218 227 225 200 97 206 203 211 210 198 208 223 203 194 187 196 100 182
243 229 224 268 242 222 232 219 233 203 208 207 216 183 190 187 192 176 182 189 187 231 231 214 223 210 212 220 209 230 208 200 200 194 212 213 200 198 194 189 196 188 188
242 240 212 266 228 227 233 247 213 201 180 207 180 209 192 183 192 182 190 175 188 212 205 219 205 212 216 204 202 197 210 191 196 191 164 206 219 176 202 196 186 173 181
212 229 297 252 266 219 227 210 203 209 200 189 215 206 184 195 179 183 175 175 179 205 234 223 230 222 211 205 202 189 196 177 184 187 181 223 186 201 182 191 180 175 167
233 227 211 255 240 264 235 187 192 189 194 202 193 174 194 187 189 171 190 169 186 180 230 218 242 208 200 196 203 194 188 185 201 107 182 110 197 171 188 178 174 169 140
226 224 287 252 245 194 199 211 211 222 199 179 172 191 188 189 183 177 185 187 203 174 220 189 200 206 188 199 184 180 184 206 131 173 174 170 163 162 169 167 165 169 148
207 207 280 245 243 204 199 206 182 178 181 183 181 181 169 190 183 182 182 183 156 183 205 207 207 193 187 183 177 141 171 191 178 164 159 157 160 157 164 171 153 142 155
205 194 274 241 241 203 203 195 209 175 184 179 183 185 181 183 159 200 187 178 177 183 181 193 212 203 210 201 172 175 187 166 167 160 178 159 158 174 153 151 154 153 159
205 194 209 243 239 209 214 182 183 191 175 194 170 174 176 180 159 166 196 172 194 193 191 174 193 200 192 182 182 180 174 156 157 164 149 170 147 161 156 150 162 148 192
208 203 207 241 228 220 191 186 184 182 174 185 188 172 175 173 173 181 164 185 160 177 174 180 188 209 174 179 179 165 160 171 153 173 122 129 144 145 165 150 135 141 146
223 203 206 220 249 229 197 202 198 181 175 171 179 184 184 186 185 171 193 172 179 181 171 160 181 172 185 171 179 164 169 176 165 157 164 150 153 151 140 162 189 140 142
223 190 223 195 234 223 202 203 196 172 170 176 175 173 182 172 182 166 160 176 176 169 163 176 186 167 175 189 177 153 155 181 166 162 151 173 124 139 173 155 158 162 154
216 206 247 206 245 242 233 204 191 171 172 171 188 174 191 161 172 163 182 182 178 177 182 184 158 178 188 164 145 156 146 173 154 147 170 161 184 171 165 172 189 159 171
195 219 233 225 214 228 211 224 183 203 179 196 191 194 191 158 166 188 160 190 184 190 183 160 181 154 177 163 180 161 165 157 156 151 153 153 170 160 159 170 174 182 164
203 221 219 230 199 242 233 232 207 207 202 172 186 207 171 180 171 162 184 175 164 196 176 150 168 168 158 166 150 150 154 149 147 157 177 155 166 175 147 158 182 152 157
197 220 224 233 212 262 216 220 216 201 202 200 181 186 179 186 175 171 185 167 194 186 169 186 145 169 162 174 166 158 151 157 165 169 156 180 159 159 183 159 158 164 175
192 213 220 234 214 253 221 219 212 218 237 211 194 188 183 193 193 195 187 227 163 173 172 179 174 184 173 167 152 152 162 158 144 182 158 168 169 174 159 180 178 178 155

GFSSE_2pvu_pres_108.txt.gz
Presure
122 120 118 115 109 87 103 95 123 99 103 103 103 105 107 109 96 108 110 85 93 105 117 114 99 105 116 124 112 89 129 120 126 122 105 119 132 130 117 128 114 93 123
123 92 114 115 140 77 132 123 135 104 91 108 130 113 118 116 117 108 113 119 72 116 110 128 129 128 127 123 132 131 124 90 127 131 135 97 129 81 106 144 132 137 136
93 96 88 115 121 77 127 133 97 95 106 117 77 101 84 72 114 117 103 118 111 114 82 138 137 145 123 135 138 142 136 136 134 128 93 139 106 143 121 133 91 119 144
129 135 214 137 191 181 78 185 112 126 188 125 125 115 156 114 91 124 83 90 141 146 137 124 152 147 151 147 144 136 143 150 160 155 147 90 145 141 141 140 146 135 103
181 233 250 254 273 264 86 183 280 284 242 302 344 272 298 281 283 274 177 238 107 231 110 238 269 268 160 234 240 246 159 176 171 153 133 99 143 153 133 99 157 141 142
229 227 237 267 266 268 256 81 310 84 309 204 252 105 243 224 137 277 283 276 226 245 257 253 281 239 127 239 241 251 264 251 238 232 173 164 168 150 160 99 162 163 136
165 270 167 265 264 251 128 297 192 248 256 189 233 127 154 129 218 216 233 251 213 238 234 233 251 261 245 270 256 247 273 183 252 126 225 214 215 126 213 210 120 227 219
218 256 258 249 245 245 276 255 249 237 194 135 189 221 136 217 189 169 204 210 219 236 232 236 225 277 262 247 245 253 240 234 231 234 229 230 178 217 200 231 156 212 203
228 244 250 256 244 249 226 288 231 210 218 118 218 229 239 212 212 196 209 254 247 241 216 220 207 249 219 241 235 242 239 153 225 225 244 221 197 215 213 220 202 201 197
234 236 240 252 238 239 281 267 240 236 227 204 206 205 205 231 210 201 191 202 183 208 211 216 229 253 258 238 215 217 233 222 210 204 209 210 211 213 209 193 194 193 186
222 245 239 248 236 214 282 241 228 242 203 218 207 205 219 223 215 194 204 199 192 180 178 207 171 243 227 210 230 221 218 205 206 209 210 207 206 196 197 194 196 198 192
202 235 237 245 215 264 239 233 225 229 207 202 201 196 199 207 198 200 200 186 194 189 180 199 232 220 209 210 227 200 210 205 203 204 194 197 199 190 204 193 96 159 184
216 223 233 228 232 267 268 225 229 240 198 202 202 197 182 187 210 173 203 201 187 181 183 177 252 209 221 205 216 213 212 209 202 198 200 192 208 160 101 197 169 193 206
216 224 233 227 222 265 267 227 231 214 208 200 192 187 179 174 184 214 206 130 175 108 169 176 210 226 221 221 210 200 206 189 184 185 179 182 187 186 185 176 187 179 176
206 220 206 217 217 89 246 220 213 206 212 184 183 186 185 174 178 201 176 192 195 190 179 171 182 224 224 210 215 190 176 197 180 182 185 194 182 179 195 177 164 168 183
210 221 229 195 216 268 234 257 202 180 202 182 184 181 167 197 197 211 194 193 185 183 187 169 174 183 202 223 201 201 197 184 181 181 179 190 182 164 172 158 159 164 162
200 218 225 204 210 255 227 243 249 209 196 190 192 192 176 193 193 191 195 168 193 190 159 187 192 166 192 212 209 188 181 180 185 171 193 187 178 160 168 163 170 157 155
196 221 207 213 206 245 230 201 207 194 199 213 202 195 185 181 157 201 195 193 177 190 165 177 178 201 190 182 194 199 198 180 190 169 170 167 166 165 161 165 144 140 153
203 220 221 226 199 249 232 213 201 208 197 198 189 191 182 172 180 199 155 188 173 157 173 180 191 189 178 175 182 197 181 175 175 178 159 154 155 154 152 161 157 155 128
202 96 219 209 199 223 244 212 198 203 185 183 176 196 188 181 173 182 207 187 177 172 155 167 173 165 170 166 182 193 184 177 171 174 167 152 132 131 170 152 131 152 175
185 170 208 215 217 215 273 191 187 196 199 176 184 169 173 168 188 195 165 185 189 189 169 174 172 181 164 166 201 181 169 136 175 172 166 168 112 154 149 153 151 145 151
192 195 213 216 196 235 247 203 190 194 194 183 185 178 169 177 192 172 173 189 173 187 156 181 166 171 151 158 182 167 173 177 172 159 167 175 149 159 154 154 149 167 173
198 202 195 215 211 199 221 249 198 185 191 180 179 182 183 186 178 177 179 177 169 162 169 185 171 189 176 185 201 184 175 169 158 169 150 144 157 158 159 152 160 150 158
195 205 209 212 210 235 250 251 218 205 183 190 180 178 187 169 192 167 172 176 187 168 159 170 183 174 173 184 172 177 174 152 175 162 167 158 159 158 143 166 146 168 162
197 199 203 200 213 233 195 218 306 206 190 208 193 177 186 166 168 171 177 179 171 161 190 163 171 174 172 185 169 193 159 194 153 149 158 166 162 150 155 146 174 183 157
197 191 197 201 216 223 225 203 283 215 192 191 180 186 181 167 178 167 169 177 177 185 168 164 166 173 157 181 173 148 186 154 162 152 158 152 150 162 165 155 160 178 175

GFSSE_2pvu_pres_111.txt.gz
Presure
126 119 131 120 125 121 123 111 113 88 92 103 101 99 113 103 104 90 105 95 98 114 102 115 114 92 116 102 107 114 112 105 89 104 125 126 95 122 120 128 128 118 131
124 116 123 120 119 129 120 126 91 111 120 127 121 126 116 102 105 105 119 102 118 119 107 112 104 106 123 118 123 114 127 117 130 122 132 105 127 137 135 137 133 126 98
125 135 131 131 129 102 92 116 104 96 100 103 132 131 103 121 82 108 92 113 127 130 122 101 116 119 118 126 130 134 136 139 137 142 138 138 139 138 131 128 126 148 95
133 132 132 125 132 127 121 147 127 139 132 125 101 87 111 140 113 114 118 80 117 115 122 97 122 111 139 88 141 135 141 148 148 147 130 123 118 143 143 142 143 143 147
189 177 207 254 160 279 146 195 238 156 83 301 264 294 284 260 115 217 220 144 121 156 106 155 153 149 156 151 151 156 147 136 147 150 155 156 149 154 155 154 151 101 162
195 198 101 164 260 239 153 145 256 276 273 303 320 321 279 281 314 91 142 230 272 238 252 265 267 269 87 263 127 264 263 267 171 128 128 167 164 164 162 203 112 182 162
229 155 239 225 230 261 276 273 253 282 303 282 154 321 257 280 223 90 248 131 279 264 259 248 248 246 225 226 212 179 252 181 262 259 251 161 213 238 198 158 207 221 214
209 206 238 231 242 254 258 257 268 243 247 200 246 247 228 108 101 216 220 275 154 278 203 131 234 127 125 135 260 206 249 206 247 241 156 223 236 232 224 238 216 230 152
212 213 237 232 241 252 230 247 245 263 288 240 227 213 203 234 162 131 217 222 259 133 229 227 231 231 237 256 255 240 244 240 240 197 234 232 226 229 231 212 218 227 222
216 203 206 230 243 242 252 225 237 294 241 225 221 217 116 239 213 222 207 221 203 129 95 236 221 230 227 222 192 217 247 234 237 216 223 219 244 239 224 186 208 134 204
216 205 217 206 226 226 242 236 244 294 234 223 217 224 220 214 213 215 239 222 236 211 202 204 201 221 243 242 229 241 215 231 228 209 212 217 222 203 206 200 205 194 195
209 211 204 209 206 238 237 223 220 238 230 214 216 222 212 205 201 221 205 195 200 195 179 205 192 184 189 224 195 235 216 211 198 220 217 210 205 202 199 202 195 192 192
210 212 206 208 200 225 239 229 264 232 229 210 204 218 207 198 195 196 201 190 187 200 201 177 174 195 207 175 234 212 211 220 214 221 193 205 207 194 197 185 187 192 186
207 212 194 194 207 232 230 212 263 224 226 216 206 220 206 205 204 212 192 193 181 195 185 179 186 161 193 220 225 204 229 208 223 193 209 194 196 199 177 189 179 180 186
210 204 183 216 195 223 229 242 261 213 232 208 197 196 193 192 196 187 179 182 193 216 200 191 189 176 177 191 203 220 215 215 222 172 196 184 172 191 188 189 177 194 168
215 128 202 213 224 226 239 251 250 158 216 211 192 191 194 189 186 184 181 197 177 194 189 183 185 173 181 194 209 213 222 221 214 184 184 176 183 187 188 185 173 167 201
208 201 196 201 210 220 215 102 233 250 217 204 193 189 191 187 182 198 195 174 190 207 183 203 178 170 191 189 185 213 216 213 199 182 185 178 175 189 191 170 170 178 169
208 83 198 187 211 215 207 237 229 225 226 202 195 186 182 183 188 189 175 190 206 160 195 185 184 178 184 178 180 189 187 209 194 179 192 188 190 189 174 171 170 165 154
209 202 198 189 199 212 155 239 218 222 252 207 189 190 195 177 178 182 187 184 176 195 156 171 181 177 174 188 178 184 186 182 195 192 176 182 174 171 172 172 168 159 156
209 195 184 198 210 207 225 234 210 217 234 203 197 188 197 228 189 173 198 195 196 168 168 165 169 165 166 179 175 171 168 177 189 193 185 172 167 174 155 160 161 160 166
206 192 188 195 207 222 215 226 222 215 199 214 176 199 216 181 181 185 200 150 160 179 201 155 169 185 159 168 180 169 165 171 180 185 182 202 180 180 173 161 148 158 156
203 201 192 187 212 203 196 219 248 216 183 193 201 204 200 195 194 192 170 190 186 189 192 183 184 166 172 172 179 156 186 183 154 139 180 176 172 160 155 165 160 150 163
203 202 183 209 186 200 205 199 240 205 192 192 209 200 192 183 195 186 175 179 183 161 172 167 168 162 162 163 174 174 180 160 186 184 169 177 160 151 155 171 163 153 148
209 203 187 201 173 212 208 215 222 207 202 186 205 191 190 179 184 192 188 188 201 167 162 180 160 157 157 165 155 172 173 175 171 182 181 183 172 171 178 152 158 161 144
205 207 198 200 187 211 203 220 192 246 202 194 187 205 192 191 183 180 191 170 167 179 191 165 165 190 164 173 181 184 161 178 174 175 181 151 180 159 178 155 142 158 155
198 200 199 193 205 192 212 223 240 211 256 197 197 200 185 191 190 182 187 178 189 167 171 174 166 171 177 168 179 170 169 173 168 179 178 177 198 171 144 161 153 159 165

GFSSE_2pvu_pres_114.txt.gz
Presure
120 118 122 101 103 104 113 118 125 124 114 111 92 107 104 99 109 117 112 92 106 109 107 114 87 113 117 102 107 112 119 115 123 93 108 90 119 85 130 131 129 112 122
123 96 134 114 118 137 118 125 118 121 116 113 106 105 110 110 114 108 125 80 83 121 103 81 101 106 116 106 80 121 108 107 107 119 78 118 127 106 129 137 135 135 118
128 98 129 128 130 126 118 124 126 136 118 97 125 130 124 106 110 114 127 91 102 115 105 120 122 79 116 108 117 110 114 121 117 122 119 128 138 136 124 138 141 135 134
117 131 79 132 137 140 135 139 147 140 130 133 123 91 105 104 92 121 101 124 113 118 130 113 121 115 118 109 95 119 115 128 108 136 136 132 133 133 137 148 129 141 144
225 242 121 216 142 120 151 141 136 213 103 199 113 274 109 296 276 303 267 166 117 101 121 159 124 98 116 139 110 141 113 142 148 146 141 136 143 150 122 138 141 146 151
235 222 249 237 241 218 219 227 254 226 281 256 237 114 303 165 168 279 238 274 264 270 258 185 105 257 280 172 248 166 171 159 157 155 132 127 110 150 152 159 159 162 161
247 235 217 215 226 162 241 243 259 263 249 242 254 267 207 168 277 308 291 271 269 259 253 157 247 276 267 278 242 232 233 230 172 242 226 247 188 172 192 240 191 154 187
249 237 237 209 222 208 217 233 168 267 263 248 246 255 220 205 209 214 233 240 164 270 256 180 243 229 204 178 245 253 192 259 247 182 227 248 248 245 157 242 235 223 238
233 233 229 229 220 224 203 229 232 253 247 241 291 262 252 222 230 244 244 143 265 249 136 277 262 242 231 244 232 230 182 216 214 196 240 194 227 195 221 220 199 231 192
224 229 218 223 224 219 215 213 235 260 242 232 289 249 226 241 228 245 241 224 225 263 126 220 281 280 260 248 234 151 243 244 234 234 223 225 242 228 219 106 229 236 224
210 68 219 230 230 221 222 228 245 241 266 236 265 236 232 243 237 264 220 220 227 214 243 225 208 233 229 233 248 226 224 245 242 239 202 199 230 219 217 209 236 205 201
229 226 230 227 218 221 212 214 196 236 232 277 251 242 227 223 232 203 210 207 208 223 210 221 199 222 239 220 220 231 252 227 240 224 232 228 242 216 228 218 210 196 201
234 236 233 226 222 216 205 205 232 228 222 261 156 240 213 227 223 206 228 194 200 207 198 190 191 191 190 209 173 240 185 227 233 194 209 217 215 192 219 203 202 206 196
236 235 201 226 224 206 208 212 226 223 217 259 215 238 207 221 203 215 223 195 188 193 183 192 192 173 183 171 177 236 218 170 222 212 221 219 192 217 199 194 194 192 201
273 228 236 235 223 199 198 214 221 219 223 243 243 224 204 209 201 193 193 192 196 186 212 179 151 174 181 202 178 216 235 213 214 220 212 208 194 194 188 188 204 186 189
269 256 243 242 226 222 193 202 216 237 213 247 210 215 203 201 208 199 195 191 184 184 176 191 174 194 184 189 199 219 225 228 220 211 201 183 186 182 182 187 164 184 174
276 263 238 242 222 104 193 198 212 218 212 241 209 207 194 195 192 186 181 186 180 189 171 167 194 181 174 183 171 190 172 204 221 202 205 182 187 186 174 166 176 181 163
288 283 250 235 226 219 200 208 220 228 240 246 217 212 193 199 190 182 189 178 186 179 181 202 195 170 179 186 179 171 192 186 188 186 198 181 187 173 173 181 165 184 176
277 273 246 232 229 202 201 200 212 216 242 234 219 213 192 187 193 186 190 189 177 188 165 183 184 183 180 176 169 177 181 178 190 186 195 187 191 184 180 189 181 171 160
263 260 246 245 204 212 195 210 202 213 225 218 239 212 194 193 196 198 192 189 172 189 189 193 176 178 178 177 167 176 182 174 174 183 186 191 194 181 183 182 169 159 168
252 272 242 235 216 201 194 207 205 229 213 219 251 211 190 201 191 189 176 183 180 184 175 199 193 160 168 164 172 172 160 177 165 163 163 185 182 179 196 170 172 172 172
251 347 230 227 217 190 197 196 211 225 216 213 224 235 211 191 193 179 192 166 160 182 183 184 192 166 175 202 203 176 161 172 175 152 173 184 170 182 176 166 175 167 177
360 263 231 221 212 197 194 202 204 218 216 207 216 220 236 200 175 196 190 208 183 198 168 182 191 191 161 175 169 161 165 170 171 171 195 158 153 173 173 178 192 174 158
341 236 235 217 209 207 189 209 205 194 215 205 212 194 207 223 183 188 211 189 177 170 170 172 193 166 188 178 167 159 172 157 171 181 172 162 176 172 176 175 181 172 164
319 242 231 214 200 206 193 204 210 231 231 206 208 199 190 193 211 195 204 192 203 202 179 197 194 191 170 172 161 154 162 179 171 176 174 163 182 182 167 175 165 196 180
297 235 224 210 199 205 204 208 200 205 243 226 202 204 204 189 210 200 204 199 190 172 202 170 172 176 168 157 164 175 171 178 169 169 173 171 174 178 168 186 202 202 174

GFSSE_2pvu_pres_117.txt.gz
Presure
115 112 118 111 95 117 119 108 109 94 111 112 110 123 123 111 115 110 105 96 108 109 112 80 112 105 107 96 79 111 102 109 108 125 120 111 116 118 112 77 114 84 126
115 114 118 118 117 116 86 117 117 90 113 119 117 119 119 118 116 117 113 111 113 111 112 96 111 105 103 116 98 76 105 120 85 96 110 110 118 109 124 116 122 103 125
133 128 136 141 137 130 130 122 118 115 125 126 109 130 123 113 108 126 129 123 112 108 117 103 104 108 115 127 76 86 127 119 115 114 116 110 119 94 123 125 137 131 128
169 140 141 143 140 140 125 137 141 129 130 131 136 136 120 140 139 112 134 108 108 99 119 111 100 108 121 121 117 118 99 107 120 98 116 124 116 118 137 114 141 137 136
266 256 239 236 260 206 177 224 213 222 215 214 147 144 151 141 130 134 139 136 117 121 125 147 142 127 143 140 133 91 99 112 131 129 104 136 142 146 141 102 141 142 139
227 265 253 243 160 130 245 239 204 242 206 235 218 214 189 270 228 163 157 173 237 312 263 284 298 134 158 220 109 110 136 169 99 160 167 161 155 152 139 151 151 144 149
265 259 253 228 246 219 252 138 222 203 226 241 249 236 124 157 129 212 208 224 216 250 247 214 140 259 174 129 275 256 264 254 248 245 161 203 128 189 161 178 169 167 160
249 244 253 243 237 240 251 235 213 222 226 223 253 184 260 135 234 215 225 209 216 248 260 280 236 250 234 226 238 268 254 249 212 251 182 249 82 236 237 229 243 184 225
227 244 248 237 240 238 238 232 215 224 220 229 245 210 214 256 237 223 226 213 222 228 228 199 262 275 226 247 235 239 215 248 264 244 117 254 231 251 242 230 188 242 228
214 226 211 249 228 237 231 227 239 227 210 222 244 250 244 268 228 224 231 237 221 223 241 257 246 285 243 241 237 253 178 223 161 231 229 244 202 215 225 231 200 213 247
209 228 226 244 273 225 252 230 232 224 224 200 247 259 236 258 240 239 240 237 234 224 242 235 261 232 220 256 263 255 247 236 252 239 234 242 248 240 240 212 220 226 232
213 216 206 235 242 259 239 245 225 223 221 228 227 239 255 256 253 237 244 229 241 249 208 207 188 194 240 229 226 225 224 230 222 217 237 242 249 236 224 212 231 224 230
209 218 220 208 237 271 241 249 229 224 218 208 245 272 240 245 242 254 215 242 205 212 214 248 205 225 225 188 234 236 236 199 249 204 181 239 218 232 231 224 222 217 224
218 192 220 233 222 286 233 201 232 205 221 213 245 212 230 244 237 216 242 243 200 193 198 205 194 196 188 184 189 237 240 183 230 177 236 184 237 223 204 226 227 211 203
206 198 228 236 239 275 259 181 230 180 204 187 212 217 226 240 218 226 215 203 220 205 181 196 178 191 177 184 173 189 210 175 188 184 222 222 222 218 211 196 195 186 191
202 207 221 241 262 284 263 238 234 213 199 218 249 214 240 223 236 202 217 201 195 181 193 189 185 180 172 191 183 175 234 226 237 209 219 207 216 213 187 191 184 188 187
204 214 214 246 270 265 262 230 234 209 202 191 229 201 248 241 220 208 199 207 185 180 193 183 179 177 187 188 183 199 190 205 225 217 217 203 194 185 193 185 184 172 174
206 204 216 243 274 266 268 246 223 198 207 203 247 216 236 240 220 198 196 184 186 185 183 176 179 181 164 187 180 196 183 193 194 167 196 204 191 190 180 185 181 173 170
203 218 232 243 272 261 252 250 221 199 205 219 183 212 240 237 207 197 193 182 189 177 186 183 180 171 173 196 185 181 184 167 175 192 188 179 193 183 189 193 178 161 169
204 221 229 253 278 255 237 240 159 184 202 206 224 228 237 232 203 208 183 182 189 175 188 168 179 173 187 178 175 180 180 178 179 177 171 188 187 193 188 179 185 189 189
201 206 240 265 275 247 238 235 211 201 201 213 220 208 224 226 221 189 193 187 182 187 183 190 176 162 189 160 177 174 167 161 182 178 182 176 176 177 183 186 184 184 179
211 228 248 297 263 280 241 229 115 197 202 208 219 224 215 234 205 190 197 177 184 180 188 172 172 172 170 176 151 163 161 163 171 166 167 169 165 158 171 165 169 172 172
198 233 252 284 390 260 239 217 200 193 194 207 216 207 220 230 215 193 183 195 192 192 190 189 193 193 155 191 168 158 177 185 164 171 166 165 164 185 174 174 167 151 165
193 240 264 257 382 238 232 215 206 193 183 202 213 204 220 235 205 207 195 189 191 190 182 157 188 178 176 172 156 197 181 166 164 147 158 164 174 179 172 158 158 183 167
187 238 271 289 310 227 230 215 208 194 188 195 209 207 219 223 233 210 188 171 177 176 178 188 175 204 179 181 194 177 169 158 170 157 174 162 180 162 169 164 156 169 163
217 240 280 368 257 228 224 214 206 196 192 202 225 196 219 215 222 213 195 189 179 185 178 190 195 177 177 168 177 180 169 164 158 180 164 155 167 189 164 174 162 174 190

GFSSE_2pvu_pres_123.txt.gz
Presure
110 105 115 116 104 107 116 116 119 116 113 101 116 123 108 93 106 90 116 105 114 88 106 103 111 119 105 109 104 109 109 94 102 92 99 87 119 86 82 106 122 91 124
112 111 121 107 106 115 109 115 93 110 113 116 115 83 102 102 88 84 118 86 112 119 122 83 126 121 109 110 112 112 106 121 107 84 89 121 113 115 119 125 123 90 124
140 146 173 146 152 136 144 124 123 122 117 124 116 106 114 115 98 118 116 93 122 123 108 128 122 92 116 113 91 110 117 118 87 79 118 126 105 110 112 108 119 90 115
227 226 183 257 244 283 204 266 258 262 202 155 151 145 143 139 141 135 133 125 125 121 110 117 124 118 119 112 119 89 117 132 109 104 125 119 119 119 125 122 117 93 133
226 228 237 252 264 255 231 278 266 258 267 258 231 238 250 205 138 137 147 140 146 147 136 145 98 124 105 93 145 122 136 134 129 126 134 131 88 142 110 143 130 132 133
224 223 216 218 165 159 159 162 164 166 179 255 206 264 251 258 234 228 209 84 146 142 91 128 162 161 157 156 149 143 136 144 109 142 149 131 148 150 125 154 153 154 150
229 214 152 170 233 223 249 216 230 257 268 267 259 268 255 240 243 258 237 227 216 191 148 213 226 211 182 166 141 182 148 130 122 130 142 169 167 165 167 170 150 156 152
218 226 204 209 225 216 181 241 158 250 242 246 275 253 255 243 252 216 217 213 226 205 204 218 221 214 239 129 229 234 229 244 286 270 254 248 254 244 214 259 198 151 233
221 220 224 199 174 159 201 205 216 229 248 260 282 260 268 242 228 242 201 206 227 219 216 227 218 216 217 221 214 194 201 204 205 216 263 251 136 152 215 234 241 239 241
222 213 200 142 200 151 210 214 223 241 240 245 233 289 260 242 232 238 228 220 222 221 138 214 217 225 226 228 217 216 202 201 261 207 234 236 230 142 235 251 238 249 238
194 212 235 212 211 212 211 199 205 246 198 247 240 224 249 235 236 249 228 215 234 221 197 226 209 223 227 225 222 211 211 261 254 245 233 238 227 223 246 234 246 242 232
193 183 203 219 197 201 217 201 187 217 221 216 254 329 255 245 238 242 236 212 210 219 223 227 204 238 230 236 222 223 216 268 251 252 242 230 219 237 226 229 228 220 238
201 207 199 220 207 200 216 210 187 158 183 219 246 328 269 237 223 242 224 220 254 214 204 219 230 235 229 215 207 206 268 238 223 237 210 230 243 243 237 244 212 233 217
197 187 193 207 202 197 207 130 215 188 177 235 269 315 265 239 202 200 225 212 250 240 229 227 228 203 213 199 212 265 228 249 241 244 201 229 212 215 219 211 210 207 205
207 197 208 205 208 194 198 204 193 210 204 129 265 307 248 236 228 204 196 219 232 252 218 216 228 230 201 210 210 227 198 220 188 208 217 257 269 251 237 231 206 191 216
203 193 181 202 193 209 204 190 207 208 222 230 265 299 199 228 225 202 198 205 224 240 236 229 223 201 198 206 205 184 191 187 179 176 224 152 191 175 187 187 206 195 181
204 202 191 204 214 212 219 184 166 176 237 230 279 100 248 226 215 232 202 225 209 228 234 219 201 192 201 207 180 190 173 174 179 214 189 222 198 199 212 176 186 210 207
202 203 202 192 199 204 217 204 169 221 240 229 280 296 251 228 217 220 207 216 222 226 204 198 221 185 189 187 170 174 191 177 175 185 197 177 193 216 209 201 188 204 200
190 182 210 210 203 195 213 197 213 220 225 253 287 278 249 226 218 185 248 213 230 221 205 210 202 176 186 171 172 181 174 175 180 218 217 217 213 200 183 187 185 202 177
196 198 199 204 202 188 215 202 161 185 230 254 281 237 242 224 218 206 229 203 244 221 192 194 178 181 169 181 170 173 173 176 225 177 197 212 202 173 187 187 193 192 170
201 196 204 189 205 206 157 206 201 225 229 266 273 253 229 225 207 216 227 225 249 219 192 184 182 171 171 181 174 175 168 167 181 167 180 191 191 187 180 189 182 185 145
207 196 202 192 203 159 210 180 227 219 232 269 273 252 226 224 208 247 212 229 248 204 204 210 174 175 171 171 169 168 176 180 180 182 182 176 179 166 172 177 185 182 177
195 197 190 219 206 191 186 194 172 217 229 275 282 245 223 220 208 200 215 230 212 194 198 204 171 180 169 171 180 168 169 164 185 179 168 172 168 159 167 158 168 174 167
192 205 211 216 192 219 214 152 242 225 252 270 291 240 222 217 208 222 238 229 207 194 202 183 182 173 170 182 172 174 168 162 176 173 161 167 157 151 155 157 157 164 162
198 208 204 210 199 224 155 224 229 187 254 271 353 233 221 212 210 217 212 228 202 189 193 186 169 172 177 172 171 165 166 170 159 167 155 170 171 165 166 180 171 161 155
202 211 198 194 206 226 221 218 242 215 253 324 283 228 216 207 198 213 215 229 202 201 182 173 180 177 175 178 174 183 176 170 171 186 170 161 159 149 168 181 161 165 153

GFSSE_2pvu_pres_126.txt.gz
Presure
112 114 115 113 111 115 105 117 121 121 121 121 101 113 127 99 110 80 111 113 116 103 108 113 114 114 101 108 102 116 108 116 114 117 107 113 99 112 94 102 94 111 89
111 124 121 112 116 121 111 110 108 107 112 115 115 115 119 117 120 122 119 122 108 92 102 115 117 105 111 105 88 117 123 116 107 107 77 111 81 82 123 87 134 83 102
147 146 147 161 157 154 171 138 124 166 177 133 115 123 122 123 112 90 121 96 116 119 124 126 119 110 106 128 123 102 131 112 118 114 116 118 97 128 98 111 121 83 115
195 214 224 223 238 231 241 232 245 262 281 300 264 265 272 213 146 140 135 89 132 123 130 135 132 128 131 116 123 122 119 115 104 131 128 112 123 121 118 126 126 106 109
221 203 226 241 224 235 224 227 239 243 240 267 285 283 277 270 278 211 277 191 137 136 137 142 134 140 141 146 137 139 143 85 125 127 144 141 142 101 141 128 105 128 134
203 210 209 219 239 242 225 219 234 246 163 163 157 159 159 156 263 254 232 224 230 213 76 149 91 87 86 162 155 89 84 82 151 148 149 150 89 145 122 125 148 148 146
191 190 194 160 217 220 224 216 218 225 210 218 169 270 275 178 276 276 241 205 229 259 222 221 212 220 190 222 173 162 151 153 156 126 144 146 120 113 150 157 159 158 158
199 174 182 164 221 200 212 202 223 223 211 179 147 181 256 156 273 288 250 227 227 198 201 210 208 96 205 211 218 223 202 222 170 242 200 261 243 258 255 155 235 227 199
157 185 214 214 218 237 217 216 231 222 225 230 219 256 247 270 239 279 255 247 239 230 159 199 218 212 206 223 224 225 220 225 200 205 214 207 236 212 221 219 244 244 247
170 210 217 207 201 208 231 213 207 227 194 221 225 252 246 262 236 290 259 231 121 215 135 204 207 218 225 209 234 226 220 208 196 202 234 203 200 200 236 213 249 239 228
201 221 213 208 207 199 216 199 203 206 213 159 218 181 267 255 256 316 250 249 225 205 207 212 129 222 215 153 227 231 205 204 200 199 207 215 251 242 239 221 239 221 223
187 210 207 202 210 193 211 210 201 211 172 211 178 188 182 234 305 289 259 245 218 216 211 224 207 201 200 213 201 213 210 223 214 190 219 197 246 230 236 233 230 221 240
204 203 192 194 209 206 201 205 195 212 164 193 178 197 232 196 291 269 248 233 255 248 202 211 210 207 203 207 202 217 230 227 200 234 216 262 240 251 239 219 215 240 218
214 205 193 185 206 194 207 143 196 203 220 158 216 218 232 251 303 279 245 221 212 220 249 203 201 196 202 213 193 225 210 222 212 202 231 206 208 221 226 242 234 231 231
162 184 182 194 202 202 176 200 153 173 218 207 189 172 202 203 296 289 245 212 196 204 211 219 219 209 213 206 215 224 218 202 226 254 246 244 244 240 224 224 213 218 204
194 158 177 176 191 201 201 204 207 206 201 174 184 229 244 238 298 278 239 226 202 200 214 210 226 246 230 220 227 211 208 221 216 203 185 187 209 265 247 239 240 233 212
199 206 186 199 204 207 190 193 193 195 201 216 226 170 233 233 305 264 202 224 199 194 192 231 230 232 223 227 207 214 194 230 191 183 181 183 195 206 184 218 177 211 200
190 193 187 189 195 190 185 190 212 166 206 183 207 215 232 246 305 256 229 222 199 205 198 214 233 234 231 207 203 196 185 182 182 184 182 182 219 192 219 198 204 192 204
196 191 192 197 207 195 190 204 199 205 201 219 168 173 236 238 295 275 235 216 225 207 194 205 227 216 226 196 195 185 180 185 175 172 178 195 212 216 199 205 206 203 178
208 208 212 202 214 205 213 198 200 202 174 195 193 190 227 240 287 268 234 221 220 194 206 213 232 220 210 215 194 181 179 180 183 179 198 206 179 207 204 201 180 194 195
199 204 203 207 180 181 199 205 192 164 205 208 226 238 251 239 295 253 227 219 199 247 204 210 204 195 199 192 178 182 171 169 179 172 212 191 169 206 203 201 186 186 188
196 208 203 184 196 203 183 191 197 205 178 178 181 238 231 245 378 255 225 218 197 217 193 188 214 218 199 174 188 179 175 169 177 195 225 175 184 196 191 190 185 175 184
187 192 193 206 196 204 194 194 195 195 211 206 204 234 227 264 400 252 224 215 214 236 212 206 207 191 188 178 182 171 179 177 183 174 178 170 187 179 183 156 182 182 160
189 194 197 192 196 201 202 194 195 205 208 157 207 173 209 270 396 231 213 204 216 222 216 223 227 193 184 172 183 170 173 174 166 177 170 176 157 174 163 162 162 152 167
198 199 193 196 193 205 205 202 186 164 203 208 237 232 214 272 295 232 217 198 201 207 216 226 204 192 183 181 172 166 171 173 168 170 165 172 167 159 165 162 173 164 154
165 203 202 196 199 199 203 197 191 209 183 209 240 235 253 292 284 227 212 207 197 243 227 219 207 195 180 182 169 168 170 183 170 169 175 159 164 159 158 167 168 160 160

GFSSE_2pvu_pres_129.txt.gz
Presure
107 107 114 116 111 107 118 108 112 112 119 114 104 115 112 123 116 84 117 117 108 107 92 108 96 116 76 110 113 117 120 106 111 109 110 104 109 106 116 119 101 111 107
128 127 118 120 120 103 112 112 110 112 109 124 111 110 121 94 114 125 108 127 112 113 124 86 117 116 114 115 108 119 107 112 113 108 103 116 112 124 94 111 109 117 100
140 138 134 136 138 148 169 154 154 224 227 155 125 127 123 118 123 109 109 118 124 131 116 129 98 111 86 110 112 87 110 102 117 123 119 114 90 86 100 124 112 103 119
129 150 186 179 195 221 214 206 249 248 209 234 239 257 287 270 288 301 257 235 136 116 119 109 138 127 103 113 127 126 104 115 115 127 115 124 122 123 109 126 102 130 136
215 218 215 209 211 206 229 202 182 234 234 237 233 227 217 258 281 277 307 283 252 250 218 97 115 129 142 142 143 143 132 139 142 92 124 140 136 134 126 132 126 134 130
221 211 205 205 195 213 215 196 203 242 247 206 165 164 164 224 187 173 261 290 173 253 242 223 227 171 161 141 162 84 150 135 153 125 152 149 147 79 106 142 140 94 147
211 204 203 165 174 214 205 235 210 152 166 226 223 222 229 227 219 172 254 235 250 247 177 170 246 207 208 224 245 178 157 160 163 155 150 153 150 151 150 150 155 153 157
205 202 207 204 186 194 163 157 191 227 213 234 196 217 223 235 233 248 261 207 226 231 239 236 165 203 203 149 216 222 215 218 230 231 201 216 206 192 182 228 249 199 246
201 202 198 189 191 195 227 213 213 219 228 229 221 226 210 225 193 241 283 237 220 264 244 221 228 211 238 227 234 114 189 169 209 200 161 229 233 216 206 206 170 212 225
197 196 183 192 194 194 220 208 217 220 214 213 222 226 217 236 222 216 261 243 231 274 256 222 206 226 228 207 209 215 223 218 149 201 218 197 202 200 205 202 207 207 195
178 192 199 188 183 199 209 208 202 207 214 218 222 216 190 215 168 173 233 227 274 236 250 212 205 206 207 213 87 227 174 172 188 214 168 198 192 193 188 200 216 234 233
192 198 190 212 203 198 218 204 193 196 213 217 154 219 231 192 187 247 177 152 281 285 241 228 202 207 206 204 210 209 225 219 209 194 193 206 190 219 222 214 235 203 228
189 183 192 209 208 209 207 200 194 212 210 213 211 188 217 134 157 165 209 248 327 280 255 215 215 203 195 202 201 213 206 218 211 189 202 206 217 213 224 219 242 237 241
197 198 186 201 152 212 193 162 191 154 207 137 136 202 202 191 160 135 254 240 313 228 260 232 222 205 192 197 198 210 219 205 197 193 231 219 229 219 237 237 79 232 226
186 201 189 187 150 182 186 181 175 200 214 206 203 207 193 209 150 193 250 252 298 264 246 193 249 202 197 225 197 195 200 212 204 196 210 219 214 203 230 193 206 210 235
208 166 185 184 191 197 200 202 177 202 193 166 106 180 177 215 218 233 238 251 299 265 234 195 207 231 229 236 237 193 187 203 193 210 217 196 226 241 243 233 229 224 214
169 202 203 190 175 152 191 211 183 188 199 202 201 185 211 188 191 179 235 244 295 254 227 202 190 200 204 221 228 195 194 194 230 221 224 219 241 178 188 248 242 219 225
201 191 212 190 180 185 180 189 195 188 191 203 195 208 186 189 220 226 240 240 291 244 123 210 202 197 193 202 217 226 232 233 241 210 207 184 194 178 235 217 185 234 207
197 190 193 181 189 187 183 199 193 207 212 204 206 206 205 198 226 219 249 237 292 233 224 212 212 196 201 213 236 225 227 198 220 191 188 177 178 187 195 186 203 212 205
197 192 181 185 175 196 199 215 206 208 181 198 198 198 201 207 233 227 248 233 292 229 223 203 200 208 193 234 236 213 209 208 176 188 178 181 191 180 189 210 189 205 206
212 212 191 165 172 209 211 208 180 185 179 165 207 195 170 160 143 236 230 246 288 247 220 204 200 214 201 224 230 234 204 192 184 175 192 174 172 197 185 212 169 205 180
181 206 203 210 214 216 214 213 188 197 193 198 195 195 173 226 218 235 228 252 278 220 222 204 205 194 199 203 237 191 207 175 190 189 192 184 211 215 174 200 196 192 187
199 192 200 200 195 192 194 197 187 162 201 200 176 202 201 183 165 243 218 261 280 247 227 210 198 196 205 226 240 181 204 187 173 179 174 189 201 171 187 201 193 190 170
206 200 201 204 200 195 197 192 193 200 193 204 209 208 210 209 221 245 221 246 223 226 221 212 200 225 204 203 213 195 191 186 175 178 178 225 184 171 207 195 175 194 170
212 200 194 197 204 202 194 198 195 199 199 198 199 204 201 183 145 234 233 239 213 218 223 200 200 199 201 232 195 194 186 186 178 167 186 175 171 171 183 175 177 157 166
210 203 199 202 203 197 199 201 203 199 204 201 179 194 205 200 219 237 245 240 228 226 213 198 215 215 226 240 198 188 178 165 181 171 173 175 173 177 175 160 166 162 163

GFSSE_2pvu_pres_132.txt.gz
Presure
103 102 111 113 117 115 115 100 99 93 96 104 90 100 104 100 122 113 110 102 105 111 115 86 110 118 100 105 91 105 87 110 109 105 122 77 114 107 105 96 101 112 114
115 117 119 119 112 112 108 113 116 117 115 114 123 119 116 114 116 111 110 124 107 127 108 116 82 105 116 115 120 104 115 116 124 114 96 110 117 116 77 105 109 111 113
110 117 136 119 131 136 136 131 109 115 124 115 126 111 127 178 128 113 100 115 124 120 111 129 127 117 111 82 115 122 111 101 109 112 113 102 101 123 110 119 114 105 108
141 147 151 169 176 193 227 133 151 173 181 135 174 234 251 235 245 245 239 173 193 135 116 130 130 111 134 119 114 105 120 123 102 115 118 117 116 125 124 111 122 121 105
203 227 224 214 218 196 220 219 216 227 244 239 212 233 250 246 228 228 245 226 237 252 297 284 239 247 212 165 134 137 88 140 141 140 98 78 137 136 127 133 139 102 103
226 217 216 218 216 216 217 217 218 220 204 166 226 230 249 243 240 234 235 240 239 287 209 282 246 242 240 240 215 146 89 158 154 146 145 93 144 146 136 140 132 135 146
217 216 216 212 213 209 212 208 206 211 211 178 226 228 208 214 204 152 179 231 238 191 185 265 260 229 228 226 129 223 219 221 219 177 165 110 157 155 154 140 149 141 152
214 216 212 203 213 203 209 207 202 202 218 202 229 178 189 160 152 233 207 228 205 268 256 279 148 151 151 228 236 161 224 221 227 221 121 238 241 185 157 152 154 156 143
187 209 208 206 202 196 199 194 201 206 196 217 213 217 222 230 224 219 211 202 223 248 267 174 287 239 227 218 223 227 227 218 200 99 196 209 212 212 204 200 199 213 212
203 210 200 201 195 197 197 194 196 193 210 209 213 207 203 236 208 227 241 231 174 181 219 293 244 238 228 236 215 225 213 218 231 81 146 235 182 225 214 199 214 203 203
207 187 207 195 199 194 193 195 204 210 211 216 207 208 216 205 169 228 211 236 169 214 267 226 241 235 227 217 225 204 219 150 230 190 211 214 228 209 206 222 191 190 206
188 178 200 179 197 193 191 196 202 204 203 205 202 199 207 201 223 166 214 185 169 171 107 149 126 184 186 137 205 204 202 202 80 214 221 205 206 201 199 190 192 201 203
198 191 195 203 202 192 183 181 199 192 211 199 190 194 143 195 212 162 163 205 189 169 122 317 283 259 219 239 205 207 198 213 109 211 208 208 211 201 192 204 202 213 268
208 202 203 203 198 202 198 202 199 189 178 169 188 199 188 154 198 217 218 160 227 188 233 285 135 149 226 243 204 195 202 201 203 197 212 205 211 191 203 204 227 242 207
192 201 213 211 203 197 186 190 176 194 200 190 226 196 182 197 214 191 216 195 201 239 239 235 261 248 245 239 202 196 159 198 195 198 204 204 208 201 201 215 202 218 249
179 176 184 194 183 188 203 190 185 184 195 200 190 204 173 78 218 177 203 197 209 229 245 294 255 233 231 236 218 211 227 203 206 200 207 201 204 197 219 219 226 243 237
177 174 181 169 196 183 187 194 202 192 93 190 202 199 97 213 177 220 215 189 168 198 245 283 251 218 229 205 197 228 204 194 211 198 214 197 191 201 230 214 205 233 226
196 187 165 177 176 175 181 195 189 212 187 211 191 199 215 209 204 213 204 229 226 230 232 265 242 218 223 196 192 193 217 219 232 228 237 227 220 204 224 197 190 196 239
196 212 210 177 169 164 150 196 200 205 198 187 185 194 212 210 187 191 197 212 223 229 225 303 229 222 215 207 195 191 194 196 203 213 215 219 229 222 188 185 195 182 238
220 222 211 185 184 180 199 176 175 190 187 179 189 191 213 202 193 209 194 190 205 235 239 322 224 225 216 213 204 193 193 199 234 224 218 219 207 184 180 175 183 190 201
214 235 209 218 180 197 167 167 190 177 167 180 198 172 214 173 202 210 193 203 178 183 144 215 227 226 213 208 208 209 194 206 240 217 211 200 172 191 166 190 177 199 191
230 218 214 216 216 191 211 169 178 179 180 172 173 225 189 198 208 210 203 201 183 217 226 268 225 223 212 207 202 205 205 232 222 216 214 178 189 176 183 172 215 201 205
227 230 230 231 216 195 201 203 200 203 204 214 208 189 186 200 181 211 208 163 196 217 232 269 247 215 211 203 204 206 210 222 218 205 184 169 179 167 196 216 179 172 200
255 247 240 239 216 192 207 200 198 183 194 205 199 201 190 197 191 155 211 203 216 210 190 264 240 222 213 203 197 206 203 218 216 204 182 183 187 172 178 184 173 201 176
264 263 248 238 220 216 213 200 193 195 190 190 193 194 192 200 184 203 210 207 221 216 241 225 226 229 216 203 195 192 211 218 197 197 172 183 168 187 184 186 166 192 180
258 167 240 229 219 215 213 205 207 199 193 195 195 201 194 207 197 210 213 178 209 218 231 224 212 217 215 205 200 192 202 224 187 190 170 171 177 204 186 166 183 185 164

GFSSE_2pvu_pres_135.txt.gz
Presure
111 110 113 117 116 116 117 111 95 94 101 122 108 106 101 107 100 105 101 104 102 106 110 100 113 86 110 104 110 116 101 108 112 112 97 96 101 114 103 111 112 113 93
115 117 117 115 114 113 116 116 115 117 119 117 116 110 113 100 106 106 104 121 100 109 119 103 109 104 113 109 103 98 107 114 87 120 116 118 92 106 105 110 99 85 101
125 129 129 126 126 113 111 114 120 125 125 114 114 118 124 117 105 109 124 118 111 112 113 105 95 104 121 116 108 104 114 105 118 124 96 118 118 107 102 118 114 114 112
127 128 121 120 122 126 118 126 132 180 136 229 222 156 141 138 124 139 154 249 171 169 178 130 123 127 118 130 118 114 124 122 99 113 103 106 115 117 113 100 108 122 116
151 152 159 206 204 201 228 226 232 227 229 232 202 186 218 236 219 248 206 154 245 246 241 248 76 244 261 255 224 215 156 86 133 138 139 130 128 96 120 127 116 104 113
226 224 220 221 166 225 224 224 220 223 221 219 224 219 230 223 211 198 165 229 243 242 249 241 255 300 162 252 243 229 83 221 214 181 166 162 153 79 143 139 141 142 126
222 220 217 217 222 218 219 184 220 156 216 216 214 212 214 223 225 244 236 235 236 229 238 233 233 252 256 249 247 240 176 219 218 218 218 218 195 177 168 162 149 145 151
200 215 214 213 214 217 216 215 216 213 211 200 198 202 213 217 219 226 222 205 170 155 155 153 140 166 185 247 239 201 230 232 154 224 216 214 147 219 225 214 196 147 192
206 213 207 202 214 210 203 174 207 206 209 209 203 228 216 221 223 217 220 219 242 230 247 228 226 251 241 246 238 234 222 83 211 137 151 213 116 144 158 118 207 235 203
209 206 212 209 191 200 207 210 208 208 205 201 208 203 215 214 213 158 229 235 235 211 231 235 229 237 230 81 162 161 223 222 228 171 229 109 78 165 206 90 201 214 215
174 210 195 206 204 175 207 204 199 202 202 200 204 193 207 212 199 206 207 213 107 158 188 183 213 216 283 227 264 228 215 220 189 175 99 197 173 198 214 180 210 199 199
197 191 200 205 205 200 200 195 195 195 200 195 197 203 202 194 195 187 198 221 213 124 193 178 163 123 240 220 121 181 183 212 216 194 148 143 202 218 210 203 198 201 193
209 202 203 190 205 212 211 203 198 193 191 189 193 154 195 205 201 190 206 197 222 206 92 170 227 233 178 276 268 250 224 212 208 210 224 206 204 213 202 204 195 201 213
175 165 179 172 203 203 198 197 213 207 196 198 191 206 185 196 200 193 102 200 224 201 224 206 220 263 144 247 251 166 190 193 204 204 210 209 200 220 198 202 198 197 208
170 65 180 177 184 182 179 195 194 205 197 205 198 192 182 157 178 192 195 205 225 228 219 198 239 176 250 136 205 249 219 203 231 215 203 202 200 200 200 213 202 196 195
195 187 177 182 173 178 188 181 172 172 181 188 204 204 199 192 187 147 81 172 219 214 162 224 181 251 194 215 242 234 233 222 241 219 222 195 198 202 202 193 206 192 185
206 200 188 180 177 144 144 187 181 172 178 177 192 198 183 205 189 204 182 207 209 211 218 215 223 239 276 251 237 219 225 233 235 227 206 205 202 196 191 217 193 234 203
182 145 140 176 185 134 169 171 203 194 170 194 163 206 191 97 154 194 190 195 223 174 180 196 219 237 223 249 230 225 208 212 225 246 233 231 226 199 209 237 188 215 237
200 198 199 183 193 193 135 189 198 189 195 190 195 160 195 205 195 184 176 199 209 202 195 202 193 234 285 236 229 219 213 201 193 191 198 204 205 206 215 217 228 236 238
228 193 197 208 201 191 199 163 186 204 212 215 202 200 167 192 181 191 203 172 193 195 197 199 193 215 213 231 237 214 211 204 199 185 189 191 223 216 214 214 220 186 193
272 276 261 217 215 206 204 202 200 167 173 169 205 192 182 191 181 174 180 175 220 226 198 205 194 191 221 207 226 220 212 212 202 190 193 191 219 218 213 201 186 175 172
220 250 246 237 238 232 223 220 200 195 209 178 165 170 170 186 194 165 165 172 189 209 192 204 190 195 179 204 225 226 207 208 205 194 192 193 227 211 203 190 179 179 188
261 262 247 233 250 242 221 237 203 211 190 204 197 172 166 190 187 192 187 211 186 202 213 191 185 178 207 256 225 224 212 202 195 197 196 227 218 208 190 171 212 164 186
266 261 258 242 250 243 243 227 168 215 179 200 205 202 187 173 175 179 181 181 206 197 203 148 199 195 195 209 244 220 212 207 202 214 186 225 196 191 186 169 175 171 212
322 325 304 280 261 253 253 242 210 195 212 216 200 207 208 193 183 196 197 187 153 166 182 191 205 202 206 201 246 210 211 205 198 184 206 221 201 183 179 173 169 168 197
314 310 308 288 280 265 198 255 233 223 223 218 203 194 195 215 205 206 193 193 191 195 204 207 205 194 180 198 199 223 216 204 201 196 193 216 211 169 166 185 175 187 185

GFSSE_2pvu_pres_141.txt.gz
Presure
115 111 107 113 114 111 111 112 112 111 112 117 114 115 121 122 120 112 110 98 117 117 111 113 112 111 107 104 106 110 110 105 98 103 85 107 101 107 112 115 104 106 106
120 122 122 117 118 119 115 110 116 116 107 109 101 103 113 115 114 116 118 109 109 108 97 121 114 115 116 112 110 106 106 101 103 107 105 86 112 117 102 113 113 121 101
115 117 112 115 123 125 119 117 112 112 114 121 118 116 122 117 117 122 115 119 118 117 115 105 109 108 112 113 123 111 107 112 118 119 116 112 109 117 113 97 101 111 95
127 125 125 118 122 123 123 126 129 128 125 123 125 126 128 129 163 130 136 155 137 129 174 175 187 250 203 245 274 90 143 134 117 111 113 101 100 115 122 115 116 105 122
142 142 142 143 145 149 151 151 152 155 157 221 226 237 231 198 200 225 227 171 218 222 237 234 247 234 231 238 235 268 258 275 272 182 139 140 140 149 156 144 136 136 141
104 151 152 149 164 173 231 237 227 234 226 194 227 224 229 226 223 226 217 215 218 228 233 228 226 242 254 257 257 273 257 253 312 278 274 250 228 226 223 225 143 183 162
247 235 198 251 238 241 238 228 227 229 219 145 223 213 218 198 198 217 222 160 217 222 222 224 229 219 227 248 249 279 284 226 190 189 256 240 232 214 232 230 224 225 220
234 173 229 202 159 159 220 228 217 225 191 199 221 143 181 206 219 216 215 204 213 209 223 216 234 219 217 234 232 259 217 260 246 177 207 224 238 226 104 212 224 216 219
229 169 153 150 149 149 236 157 138 140 137 135 145 216 208 212 206 211 202 212 212 205 216 224 211 204 219 218 256 226 255 251 278 284 246 220 167 156 160 165 158 185 151
145 155 155 155 177 139 224 227 197 191 192 218 211 194 206 191 202 209 208 203 201 205 216 209 214 213 208 247 98 258 282 291 231 278 245 227 225 247 216 165 154 189 123
174 210 196 191 221 204 211 211 201 198 209 195 182 205 183 210 215 216 210 205 210 204 209 201 197 199 74 236 233 234 279 239 253 230 259 231 220 199 218 209 213 209 204
179 192 180 201 189 196 195 183 191 203 211 205 189 195 184 200 208 204 204 218 216 215 206 206 196 191 192 202 232 233 236 239 282 277 252 236 231 216 205 204 208 204 203
187 196 186 190 195 189 189 186 198 188 197 186 183 190 191 186 199 195 191 193 208 207 193 214 200 184 201 207 235 224 105 295 83 261 256 159 76 221 82 206 203 183 200
178 181 185 200 182 189 190 192 185 191 195 187 182 199 190 195 200 196 192 194 189 182 179 201 115 211 199 206 216 88 168 295 263 223 252 239 221 217 137 207 219 198 174
186 184 183 185 180 184 188 193 193 197 190 193 195 191 191 186 194 188 190 185 185 179 177 160 200 201 160 200 223 203 254 272 262 254 256 153 153 206 203 217 220 204 201
205 212 202 191 197 195 192 197 199 179 197 195 201 198 202 184 190 193 177 189 179 183 191 199 202 192 167 194 205 215 211 249 265 252 251 249 248 235 231 231 207 205 203
202 202 202 212 204 198 200 198 150 201 68 129 209 186 205 198 200 189 188 158 139 198 173 201 111 169 199 195 97 221 141 200 258 249 233 240 232 226 231 226 228 200 203
193 196 195 198 192 189 187 184 182 183 188 194 196 190 195 178 186 200 174 183 183 203 86 203 192 195 163 193 196 225 217 214 215 242 239 222 235 235 233 229 231 227 222
206 194 193 167 177 181 184 186 184 186 190 193 199 193 200 159 206 204 181 186 195 195 177 162 221 210 191 194 191 186 218 216 207 210 237 233 216 220 226 214 214 210 206
218 214 209 191 194 188 186 191 193 190 187 194 198 107 212 213 215 206 157 182 178 197 81 202 174 197 186 196 194 190 217 176 211 197 186 228 216 220 205 199 192 195 205
205 201 222 217 218 233 231 204 202 210 204 204 212 228 227 231 216 206 208 209 204 190 171 202 170 92 198 144 218 173 193 193 194 201 191 189 218 217 214 196 186 192 204
242 241 240 239 231 233 234 224 235 245 240 232 243 242 201 200 217 219 199 194 197 211 201 190 185 162 177 168 200 204 194 203 199 209 210 203 228 219 210 203 193 203 210
227 212 234 215 235 241 245 206 240 215 212 215 207 187 199 191 202 210 193 205 193 188 193 196 195 161 170 170 180 196 205 181 207 204 206 206 228 220 214 206 203 191 211
211 219 226 229 171 116 240 254 256 211 209 200 187 183 225 194 190 177 206 193 194 195 200 184 183 202 168 179 172 174 204 178 155 190 199 231 210 226 207 210 203 193 210
209 212 226 225 162 238 245 264 259 295 245 193 256 267 187 185 193 193 204 172 194 192 186 192 195 186 204 170 171 166 180 165 201 187 197 190 213 222 217 197 215 194 220
239 239 248 306 130 289 284 283 294 296 315 218 247 206 201 253 198 186 197 170 168 183 188 187 191 194 186 189 175 174 176 186 201 191 205 212 212 206 219 204 201 203 216

GFSSE_2pvu_pres_144.txt.gz
Presure
113 113 110 106 111 115 114 110 109 116 77 113 114 116 113 113 113 116 119 122 123 96 121 114 119 116 99 102 107 108 98 110 77 109 82 95 79 106 99 94 117 82 98
117 122 121 118 115 115 114 115 115 104 109 113 112 112 106 111 111 110 109 110 114 117 119 122 119 118 118 117 118 118 119 112 105 112 108 110 110 104 110 114 111 99 116
119 117 117 116 124 113 115 117 120 119 123 123 119 121 118 118 119 124 125 119 119 125 119 119 120 126 117 117 105 125 113 115 117 111 112 106 77 119 120 119 119 116 83
123 126 126 129 130 117 118 120 123 126 122 127 126 120 129 130 128 125 130 131 131 132 132 130 132 138 133 157 127 189 188 184 209 178 128 198 134 136 138 127 104 132 136
132 130 135 132 127 129 137 136 132 132 134 128 142 142 205 152 152 233 232 207 229 228 212 233 224 242 233 243 238 248 259 232 278 258 264 287 241 223 217 201 153 144 127
229 223 230 184 207 238 151 151 152 152 237 187 183 229 223 230 222 153 227 186 220 226 170 221 222 221 235 224 83 219 248 256 277 364 241 238 245 234 212 219 213 220 224
233 162 237 242 230 246 249 221 245 222 238 236 220 231 230 221 225 221 207 155 195 219 170 212 218 221 234 225 236 248 232 240 266 256 273 270 256 115 216 207 209 174 160
236 240 243 240 235 232 250 231 242 197 196 172 224 198 225 226 186 182 164 213 212 173 205 214 219 215 225 188 229 221 249 249 238 328 261 158 271 235 226 214 214 211 204
230 182 158 190 235 237 182 165 180 157 153 150 142 227 157 135 144 155 189 194 215 194 208 214 216 212 217 216 218 200 254 243 270 255 261 269 220 257 238 229 213 210 193
201 158 155 215 156 189 209 205 149 212 204 212 203 214 205 198 195 210 212 218 217 218 220 225 225 217 216 205 202 212 235 240 261 297 246 247 269 216 232 221 219 231 222
195 194 197 194 194 192 197 194 210 222 205 211 211 191 201 208 206 194 204 191 198 201 199 206 227 222 209 225 233 204 205 246 240 233 288 233 252 213 233 212 214 211 208
190 175 194 188 189 203 196 174 199 189 202 208 197 193 195 196 193 187 184 200 187 191 196 161 197 194 156 210 215 229 213 173 237 307 292 157 253 227 215 219 219 153 177
182 184 187 195 192 180 183 188 185 199 188 182 187 187 185 191 202 198 194 198 196 196 210 188 197 188 185 185 205 223 199 236 220 166 265 266 247 233 142 202 196 215 220
206 204 204 205 194 193 194 193 187 190 188 193 189 191 191 192 184 186 197 199 196 192 186 190 202 203 204 191 204 186 207 173 245 94 300 122 241 236 213 212 211 103 110
200 201 202 201 202 204 191 195 193 193 191 189 193 189 184 180 170 190 196 197 190 195 189 190 183 182 190 202 213 193 179 207 237 221 255 214 237 230 187 222 224 207 207
192 193 194 192 194 198 162 203 205 200 201 204 202 195 193 193 192 192 189 177 200 191 198 161 158 180 202 215 205 189 204 203 201 223 263 278 253 242 226 219 221 221 211
187 184 189 193 192 193 194 191 146 196 203 206 204 203 201 76 194 191 199 204 179 176 180 190 169 196 180 143 94 206 215 159 201 223 239 256 248 261 238 221 223 222 214
185 180 180 192 192 193 189 187 193 193 194 188 191 194 193 190 190 189 198 190 197 176 174 176 199 191 170 167 197 83 99 200 203 190 183 196 233 243 236 229 240 225 231
204 204 200 184 179 178 193 201 194 194 192 189 192 193 194 194 201 202 192 191 200 189 192 189 174 163 191 145 193 214 203 200 194 175 208 200 238 235 219 228 225 221 219
203 209 215 206 200 205 214 211 205 196 193 191 192 191 192 193 194 201 201 204 208 203 201 205 202 119 100 169 195 185 195 195 202 164 213 191 195 187 223 219 227 217 212
222 227 233 229 232 221 198 219 214 213 206 202 201 201 202 202 203 204 208 207 214 214 216 201 203 202 145 190 187 181 170 164 181 191 168 223 225 203 230 217 216 201 195
228 79 237 235 232 222 237 217 230 238 190 186 196 200 201 207 215 219 213 216 212 218 206 206 197 196 191 200 189 187 197 197 165 180 190 192 200 202 216 228 211 208 195
201 91 235 246 163 230 224 230 232 238 239 241 238 213 215 220 228 229 247 249 242 191 197 192 196 177 195 194 200 189 192 164 179 172 182 185 200 200 213 204 217 209 197
187 243 195 186 247 234 212 223 235 243 233 236 238 230 228 252 211 212 211 205 173 185 209 198 221 194 183 189 177 187 191 196 178 190 182 164 190 210 189 220 225 209 202
239 215 206 236 212 220 203 232 224 223 228 234 235 258 233 250 247 198 187 173 172 206 195 168 195 184 194 182 194 181 176 193 198 183 146 178 181 187 190 218 210 213 208
226 204 239 233 205 239 205 216 218 240 250 228 253 243 298 265 302 233 203 234 182 185 181 175 163 203 182 185 192 188 174 195 193 193 187 181 178 189 192 202 204 218 207

GFSSE_2pvu_pres_150.txt.gz
Presure
98 108 115 116 118 111 116 125 121 121 121 120 113 109 113 117 114 110 114 118 119 119 120 117 110 113 113 103 116 113 109 110 112 109 106 96 109 86 112 111 115 93 117
110 116 112 117 121 119 117 119 120 131 126 125 122 123 125 125 119 120 121 127 121 123 124 123 120 120 122 121 119 125 121 117 116 121 120 117 110 108 108 122 117 116 79
117 119 120 122 122 122 120 123 119 122 124 126 128 123 122 121 117 128 126 125 127 127 125 127 131 132 132 130 130 130 128 125 123 124 122 120 120 121 128 127 125 127 129
124 124 138 134 135 135 132 131 130 127 128 123 131 133 133 133 133 132 129 127 125 131 125 132 131 130 128 136 171 199 238 192 236 234 240 250 241 281 270 269 262 182 222
157 155 170 156 124 124 221 124 127 218 205 142 149 134 132 135 134 140 135 134 147 143 143 152 157 230 228 231 214 246 217 203 228 242 234 191 258 288 266 230 248 238 237
200 219 174 236 185 253 242 248 253 235 236 240 232 241 219 245 257 224 250 224 238 218 217 225 224 226 172 160 227 226 235 231 224 229 198 239 155 191 259 240 237 230 213
242 241 250 245 220 245 255 172 221 239 183 238 235 236 237 235 225 232 224 220 232 232 224 222 226 163 192 218 234 157 138 145 140 122 211 108 231 219 270 233 230 217 215
211 144 189 226 211 158 135 217 239 219 238 231 236 237 237 227 239 234 219 231 219 187 221 223 160 185 142 142 177 172 213 241 230 231 237 208 266 258 257 249 216 218 189
203 131 148 215 211 214 223 209 211 211 199 208 215 218 206 225 192 207 183 154 227 225 206 155 152 204 216 205 204 202 203 218 219 160 210 206 262 278 264 244 218 210 215
114 133 209 207 163 202 193 187 189 187 206 201 200 197 198 194 198 190 215 222 206 213 219 192 220 224 196 187 192 200 201 186 199 211 213 237 229 285 256 283 219 211 206
141 204 205 149 206 146 133 140 181 205 199 166 197 201 189 199 199 201 201 193 196 205 201 199 199 197 189 210 201 203 200 205 197 193 202 215 213 284 290 245 275 208 204
209 212 211 210 210 206 184 207 201 203 212 215 205 198 176 202 189 181 195 198 198 192 187 193 195 194 192 198 201 196 201 199 207 211 183 227 205 244 252 239 241 203 201
195 199 206 199 201 204 198 201 205 206 202 201 207 210 204 205 203 202 188 188 186 196 193 192 195 187 191 201 206 156 203 202 194 178 219 199 213 206 270 257 243 230 231
196 146 143 172 184 140 140 194 189 192 195 201 206 206 205 196 196 203 203 198 196 186 187 187 188 202 199 190 201 196 209 207 209 158 203 219 190 215 214 243 242 242 230
196 152 135 151 125 194 139 191 190 189 189 190 190 193 196 201 204 201 204 207 207 204 202 192 202 200 196 197 200 210 191 201 194 204 190 189 237 205 220 227 234 247 228
185 146 188 191 191 190 199 198 195 195 191 185 185 189 189 187 189 199 198 202 206 206 210 204 203 200 197 202 192 197 203 198 189 195 206 182 216 207 175 259 230 229 244
198 190 187 187 179 193 197 146 198 201 196 198 199 193 196 199 189 186 191 193 192 193 198 207 208 207 205 200 181 188 190 196 81 199 184 188 210 200 200 183 240 215 228
183 188 190 191 195 184 202 203 210 197 203 203 204 195 196 204 203 203 192 192 189 193 196 194 195 197 107 145 179 192 183 197 202 186 215 187 205 147 205 182 215 229 236
206 199 194 166 206 209 211 167 188 192 197 180 184 190 169 195 201 207 207 208 190 181 193 161 199 198 183 190 189 185 172 194 202 200 171 209 197 194 196 210 197 184 185
193 222 190 225 208 174 212 214 234 165 175 205 229 220 218 204 219 206 228 223 221 204 212 211 205 187 185 196 201 191 196 184 200 202 127 208 198 176 193 183 189 221 215
208 208 213 193 218 228 227 226 202 211 233 224 204 207 250 204 226 211 215 215 235 224 211 209 205 204 203 204 208 206 189 192 185 188 132 192 199 198 200 172 180 185 195
195 193 208 209 217 217 217 197 201 210 221 219 224 225 199 240 237 209 235 239 237 229 228 204 202 190 206 199 202 206 213 215 163 205 70 199 194 120 194 194 162 200 172
197 218 227 239 189 237 212 203 144 216 77 213 216 208 219 208 219 189 174 230 258 252 254 232 245 236 206 204 202 211 214 238 185 205 176 199 140 200 193 192 189 157 169
88 187 185 196 197 201 205 109 157 210 221 192 175 202 212 207 208 197 233 217 204 213 250 235 254 127 141 244 234 222 207 250 202 195 195 198 153 192 200 195 203 168 166
201 194 196 199 203 207 229 212 237 200 265 203 209 215 209 219 200 205 208 182 179 238 186 224 213 224 151 178 198 196 190 222 211 199 210 171 211 192 186 213 189 203 195
187 200 199 192 196 198 215 212 209 256 241 258 240 253 209 239 229 236 232 191 225 169 220 177 172 191 173 205 134 200 191 188 224 207 188 184 200 203 194 190 189 183 191

GFSSE_2pvu_pres_156.txt.gz
Presure
120 119 119 148 116 124 122 118 120 117 123 121 122 114 113 121 118 120 119 122 126 123 124 124 124 120 118 116 111 116 115 115 117 117 122 110 121 119 105 104 126 108 97
118 116 117 118 119 120 122 121 123 123 125 126 125 130 129 125 127 129 128 129 128 128 129 130 130 123 124 126 125 123 94 122 120 124 121 123 123 127 130 131 128 123 123
126 124 125 124 120 120 119 120 121 126 128 127 127 124 128 125 120 124 128 129 129 133 133 138 138 137 136 134 134 131 129 124 122 119 127 128 132 133 127 127 127 131 128
131 129 135 129 134 127 128 126 129 141 135 137 144 145 195 191 195 245 241 245 228 250 186 206 197 183 181 145 140 135 133 128 126 131 138 138 139 150 152 193 199 258 248
180 180 179 177 175 180 184 185 194 233 217 247 238 260 262 205 252 222 241 239 236 237 230 239 247 236 238 228 228 225 232 232 236 229 199 244 234 230 234 203 236 238 230
193 195 199 196 240 255 251 167 169 221 233 208 216 179 217 237 159 151 151 203 233 229 237 229 236 137 233 230 229 224 231 230 232 235 232 230 251 242 199 155 166 247 257
228 235 235 236 233 226 220 227 220 227 229 226 222 211 190 185 212 207 212 215 235 239 239 221 232 239 231 234 230 230 209 165 214 216 178 217 203 192 140 138 253 134 136
227 194 222 227 225 219 219 201 223 213 215 214 216 124 207 209 202 195 205 198 203 211 219 220 240 217 213 223 234 232 208 205 226 192 210 201 151 207 209 227 238 227 221
219 219 217 219 222 216 218 216 220 223 222 133 175 127 123 155 206 213 203 201 183 155 205 178 152 203 201 201 213 208 191 224 224 202 202 200 194 194 202 200 208 242 218
211 206 203 131 133 202 211 214 144 209 209 212 182 203 206 214 219 218 214 177 132 202 193 203 202 199 191 201 201 201 171 201 194 193 195 193 205 185 207 218 212 193 220
207 202 135 155 156 197 211 212 189 207 204 153 205 212 206 203 202 202 201 203 204 207 213 211 212 192 202 183 197 196 197 189 195 197 207 199 200 203 206 199 212 237 193
193 178 200 202 207 139 205 181 169 135 150 187 188 194 208 188 202 177 188 188 198 197 195 200 205 205 211 199 195 189 194 190 185 183 190 187 191 204 212 219 201 224 226
194 190 191 192 192 196 125 178 184 185 184 184 190 137 171 171 192 198 138 192 196 197 207 203 192 194 203 204 205 200 192 188 183 192 193 201 197 210 210 199 221 201 232
173 173 181 107 181 186 203 153 131 142 125 147 156 182 190 194 194 180 173 193 185 192 190 215 204 209 192 195 202 202 209 208 200 199 185 209 202 205 203 204 207 231 227
178 188 188 162 196 174 188 191 159 189 149 164 173 187 142 137 169 180 185 201 189 190 206 183 214 198 204 201 187 192 195 198 210 215 205 195 201 195 196 195 200 190 204
170 189 173 177 179 185 188 189 171 191 118 106 141 128 133 164 161 143 168 176 168 204 194 194 186 217 212 226 204 210 191 196 192 196 209 213 206 192 186 189 201 209 189
177 170 178 176 180 171 178 179 191 193 193 146 178 178 138 201 179 178 175 191 202 196 228 190 187 193 213 201 226 221 222 205 183 190 193 199 200 186 187 188 206 204 180
175 195 170 169 167 175 181 178 178 201 194 177 178 179 189 208 204 152 212 186 210 197 214 201 178 181 195 187 205 199 222 220 180 168 191 199 193 188 139 199 184 197 207
171 176 177 174 182 183 179 184 199 184 209 175 197 206 197 175 170 174 182 177 149 158 162 165 190 175 163 202 230 223 248 224 223 217 203 217 209 193 187 182 209 175 206
159 170 178 166 185 182 198 215 203 198 214 188 193 203 162 211 217 196 203 176 203 170 170 156 169 174 175 182 184 191 203 208 193 205 194 212 156 187 176 200 202 182 205
174 179 173 176 173 178 206 213 211 200 211 207 206 201 205 223 194 165 222 204 183 177 158 152 161 153 154 163 184 181 197 197 203 199 199 194 222 246 217 201 196 190 203
196 187 181 191 192 194 217 221 224 227 206 210 185 224 204 238 199 216 201 216 179 177 173 163 164 174 164 171 166 167 177 177 186 194 184 191 228 210 209 205 198 196 206
201 198 197 204 205 211 213 204 212 215 220 220 216 206 205 202 186 223 223 186 224 212 190 102 141 153 155 159 163 213 179 184 178 185 182 184 195 191 212 180 196 202 209
205 198 203 200 220 207 215 217 207 204 243 243 215 209 209 226 207 198 222 194 195 166 163 200 159 228 169 178 175 199 167 184 171 189 186 185 180 201 225 233 222 202 215
209 193 221 222 204 212 230 249 255 205 218 229 217 208 194 204 178 208 234 234 210 211 208 197 176 198 182 154 144 175 161 140 189 178 172 190 189 184 193 209 216 235 229
224 194 216 241 240 226 203 211 207 194 202 199 203 208 203 151 191 182 198 183 207 209 213 205 196 187 184 177 174 193 161 170 170 190 179 192 207 217 201 200 211 194 234

GFSSE_2pvu_pres_162.txt.gz
Presure
119 123 122 122 123 121 116 123 123 120 112 120 124 120 125 124 126 119 126 125 125 125 129 127 131 129 129 128 131 132 130 129 130 120 109 117 111 129 124 106 120 117 107
118 121 120 113 115 113 127 119 134 128 126 126 131 128 133 144 145 146 146 128 132 135 132 133 133 134 130 127 136 129 128 129 132 130 127 125 129 132 133 132 128 125 127
127 135 139 133 134 133 134 135 133 135 136 135 131 138 137 135 135 135 135 137 140 142 140 151 155 154 231 201 243 238 242 202 186 151 142 130 131 136 130 129 136 133 131
169 172 168 147 141 158 142 143 143 143 142 139 140 142 141 143 144 147 149 151 186 259 260 241 239 251 256 243 206 245 224 244 245 172 227 241 185 240 209 183 144 138 130
168 172 174 172 177 176 177 190 200 192 230 234 241 200 224 226 218 235 233 221 220 236 216 206 227 227 167 249 176 181 240 241 238 227 199 187 241 170 229 201 229 231 231
238 228 235 223 228 238 235 233 231 230 227 235 231 237 228 230 227 220 219 219 230 226 219 219 220 213 178 205 201 202 198 197 225 229 227 238 235 227 222 222 208 217 219
223 234 223 225 228 228 229 222 227 206 207 204 225 223 219 191 211 233 233 236 235 233 158 220 159 128 128 126 151 210 208 214 196 227 232 201 226 218 222 212 218 223 207
216 212 213 216 214 223 173 127 129 174 211 213 215 221 216 213 215 215 208 217 215 163 183 218 169 139 217 220 221 209 191 204 169 174 143 200 225 212 210 212 207 207 211
152 208 208 215 210 206 204 217 226 225 124 132 216 212 207 209 137 133 139 217 215 155 212 207 203 204 205 204 206 210 217 214 212 195 197 200 194 203 202 195 202 207 205
190 139 209 204 174 212 197 204 220 201 206 204 200 150 188 129 203 197 194 200 199 199 161 203 206 215 195 201 200 201 201 202 214 215 212 206 202 193 197 202 147 191 201
195 181 181 190 193 214 205 190 203 196 188 192 196 195 201 199 212 205 184 184 198 198 204 200 201 197 200 205 213 212 199 202 203 202 208 212 213 211 200 193 200 189 190
157 189 193 168 187 192 199 192 197 193 188 187 197 187 199 193 200 196 198 169 185 189 162 187 160 177 182 187 158 186 209 215 197 199 194 199 204 204 214 222 206 192 191
199 182 197 194 182 194 192 182 195 189 180 181 182 184 183 196 194 183 189 207 175 180 126 194 176 189 167 201 186 199 186 212 207 204 192 190 205 207 195 202 207 221 208
191 197 186 181 195 192 201 206 195 201 181 169 187 194 196 184 199 212 183 165 169 179 186 179 189 145 121 151 168 195 172 150 182 195 209 206 197 188 201 198 192 204 217
166 123 187 187 134 172 181 183 178 182 172 190 173 179 170 177 162 188 194 198 168 177 183 201 138 143 181 164 202 187 193 193 183 193 199 205 200 206 204 204 211 193 199
188 174 189 187 171 176 153 183 183 179 181 179 188 183 179 169 184 179 174 168 172 177 154 178 155 193 214 137 191 195 205 180 176 191 183 190 221 223 206 214 212 174 184
153 173 167 158 178 163 175 182 176 167 173 180 195 176 173 188 173 161 156 174 174 180 125 155 191 155 200 131 136 189 199 179 178 179 189 181 189 219 242 236 223 213 187
175 174 175 177 176 162 160 180 175 187 166 175 184 179 165 184 194 164 202 178 157 172 173 175 136 154 183 158 192 206 183 144 175 162 179 194 189 189 204 204 227 225 202
177 182 183 185 182 185 189 176 181 180 187 178 188 192 183 210 206 188 179 198 194 195 194 193 199 201 192 212 188 215 189 137 156 169 156 179 187 187 195 207 196 207 211
186 188 186 187 187 190 193 186 198 197 193 184 184 201 184 208 168 166 205 168 206 211 214 200 169 205 158 179 194 198 152 167 183 165 166 163 200 190 174 182 198 197 198
206 205 173 210 215 215 210 203 178 209 174 173 173 174 184 184 105 200 216 232 204 200 188 203 200 168 202 159 190 125 188 141 142 169 176 151 165 185 175 192 180 188 210
188 190 170 167 168 166 188 167 170 170 173 173 179 175 170 194 189 230 205 207 212 227 217 209 228 210 224 159 206 170 174 187 170 152 154 163 168 195 185 168 196 182 201
172 186 190 173 188 198 176 171 171 185 177 176 185 185 182 210 197 185 189 190 192 169 209 215 233 164 233 204 214 213 179 157 167 181 172 170 170 189 169 164 166 184 207
155 160 150 173 168 161 191 107 170 174 193 216 200 194 198 204 225 222 215 142 208 208 213 204 218 236 218 201 211 190 193 179 187 197 183 158 167 170 177 164 140 187 183
161 162 210 190 162 170 164 169 192 169 172 210 224 226 223 201 225 220 224 244 244 225 203 207 221 245 257 258 244 219 171 184 187 153 142 159 156 173 182 142 204 169 178
181 177 187 175 179 190 236 206 186 213 249 248 221 140 224 238 253 83 252 295 260 258 264 257 253 258 218 236 248 217 187 182 158 170 158 180 179 192 154 165 170 193 192

GFSSE_2pvu_pres_165.txt.gz
Presure
124 129 131 126 112 124 108 116 121 127 116 112 120 130 133 130 121 121 130 129 127 118 127 148 137 147 135 128 129 131 130 121 128 123 131 133 130 129 129 122 126 123 112
125 128 136 132 133 133 132 132 131 124 128 129 134 132 128 130 129 126 126 131 133 132 133 132 131 135 135 129 133 138 131 136 138 136 127 132 131 131 136 132 132 131 130
168 183 174 166 162 146 140 134 140 137 130 125 125 133 136 138 137 136 136 139 143 145 142 147 151 152 153 172 231 267 260 223 254 248 249 252 190 243 241 160 155 133 132
173 175 176 181 173 177 177 188 189 187 183 167 165 186 143 166 157 137 185 183 152 188 238 231 226 229 241 238 236 236 225 224 260 221 246 243 234 248 245 171 237 239 194
174 172 172 173 231 224 237 226 226 239 247 238 234 233 236 229 227 229 227 234 234 234 226 224 225 226 219 224 222 219 214 213 217 197 221 206 241 248 239 239 230 230 236
208 206 221 240 241 242 238 240 239 224 235 231 232 229 221 236 229 229 223 214 223 144 225 224 224 226 224 215 219 223 220 217 134 134 135 236 144 225 215 227 228 225 147
222 164 135 137 192 205 221 225 222 222 223 222 214 215 190 130 132 230 225 224 230 239 233 237 225 223 226 224 222 179 124 124 219 209 209 207 190 212 205 219 225 221 203
114 118 126 128 127 131 140 204 160 204 210 216 216 216 216 214 191 172 137 219 217 215 219 193 136 152 204 206 197 206 209 190 218 223 192 216 200 199 209 135 169 207 200
173 185 152 178 188 114 122 159 206 200 188 210 200 202 202 208 150 207 205 211 195 201 174 130 186 206 207 208 216 210 201 204 203 207 208 218 214 205 200 187 201 201 204
190 133 133 132 153 176 172 174 176 196 195 185 169 173 194 202 193 194 197 199 218 191 194 183 191 206 201 203 139 196 193 199 204 215 200 190 207 207 218 208 202 195 208
191 189 125 167 184 158 115 179 194 192 180 203 201 194 197 183 191 203 200 190 196 190 187 189 178 183 187 186 190 186 184 193 194 194 156 212 188 206 209 211 219 215 208
195 203 159 162 189 203 124 173 183 193 196 195 196 199 195 187 194 201 176 178 191 181 175 183 189 181 180 161 128 176 174 221 185 207 193 212 216 202 204 190 204 203 211
165 193 134 186 106 189 203 188 129 198 192 191 189 189 194 182 178 193 184 186 191 183 173 201 181 204 176 216 135 174 198 150 238 159 190 205 180 206 202 197 210 208 202
144 186 184 184 197 192 132 107 195 180 142 174 179 175 190 194 178 183 175 175 172 178 178 198 169 175 187 193 174 152 174 179 187 188 199 216 129 192 186 210 208 203 208
172 184 192 192 180 118 131 183 126 181 166 182 173 174 181 174 176 180 182 191 174 180 184 164 178 198 190 173 184 227 174 143 161 212 181 175 184 188 188 192 218 225 222
186 175 172 168 186 120 164 150 147 170 176 181 161 178 183 183 182 178 168 185 186 183 184 190 213 189 173 173 178 175 208 213 147 190 158 178 189 182 187 185 225 239 210
169 193 192 189 178 172 173 172 183 177 175 184 182 176 190 173 154 154 192 180 175 169 179 195 201 168 159 181 175 182 191 194 146 146 123 141 175 183 185 191 191 229 229
199 182 198 195 196 190 181 173 178 182 182 182 182 181 169 190 191 195 192 191 188 167 163 202 195 195 198 192 169 185 179 220 126 153 186 150 172 161 139 181 195 194 187
189 184 183 194 210 204 205 187 187 188 182 182 183 184 191 203 212 213 216 216 182 212 200 200 175 192 170 197 196 161 207 217 176 195 186 187 154 164 174 159 182 190 193
211 206 186 181 203 187 187 189 183 182 196 201 193 182 187 191 203 181 178 182 181 181 192 188 196 168 202 203 209 198 179 186 170 165 191 179 143 161 188 163 176 164 184
182 182 182 193 186 169 171 164 172 189 184 181 182 180 175 175 191 187 187 185 175 188 112 196 198 199 197 209 196 222 207 162 204 195 210 195 143 186 174 145 169 153 157
200 177 173 180 186 181 180 171 169 182 178 183 177 173 173 197 208 181 186 186 192 191 183 194 199 194 192 196 202 196 195 208 195 179 150 180 162 169 156 150 201 158 159
182 185 163 167 171 167 167 169 184 169 181 175 175 186 193 189 194 182 165 184 182 177 229 224 200 185 208 216 209 200 165 208 194 166 175 143 170 177 173 136 184 176 156
175 168 190 193 180 178 167 181 189 176 174 186 185 169 167 179 175 191 194 193 195 194 247 204 203 206 211 222 202 194 209 198 168 200 188 181 187 166 179 150 172 162 161
157 191 163 172 209 205 200 169 179 165 207 240 172 163 176 184 227 225 244 253 227 251 241 257 256 236 231 235 228 245 244 226 194 169 192 205 183 188 134 139 149 164 173
183 165 169 180 219 229 232 228 197 172 166 252 183 234 237 213 249 265 262 207 86 236 214 300 262 251 254 257 251 243 252 213 202 230 144 196 183 174 183 178 177 185 138